Regional Weather Roundup
Issued by NWS

Home | Current Version | Previous Version | Graphics & Text | Print | Product List | Glossary On
Versions: 1 2 3 4 5 6 7 8 9 10 11 12 13 14 15 16 17 18 19 20 21 22 23 24 25 26 27 28 29 30 31 32 33 34 35 36 37 38 39 40 41 42 43 44 45 46 47 48 49 50
000
ASUS43 KIND 230009
RWRIN

WEATHER ROUNDUP FOR INDIANA
NATIONAL WEATHER SERVICE INDIANAPOLIS IN
800 PM EDT FRI MAY 22 2015

NOTE: "FAIR" INDICATES FEW OR NO CLOUDS BELOW 12,000 FEET WITH NO
SIGNIFICANT WEATHER AND/OR OBSTRUCTIONS TO VISIBILITY.

* - STATION DOES NOT REPORT WEATHER SUCH AS PRECIPITATION OR FOG.

+ - STATION NOT QUALITY CONTROLLED BY THE NATIONAL WEATHER SERVICE.
    USE DATA WITH CAUTION...ESPECIALLY DEWPOINT AND RELATIVE
    HUMIDITY OBSERVATIONS.

INZ001>003-010>013-019-020-230100-
NORTHWEST INDIANA

CITY           SKY/WX    TMP DP  RH WIND       PRES   REMARKS
GARY /AIRPORT/ CLOUDY    55  36  47 NE12      30.26F
KNOX *+        MOSUNNY   63  32  31 N12       30.25F
LA PORTE +     PTSUNNY   63  35  36 N9        30.29R
6HR MIN TEMP:  63; 6HR MAX TEMP:  71;

MICHIGAN CITY+ PTSUNNY   55  36  47 CALM      30.29S
MONTICELLO +   CLOUDY    69  36  30 NE10      30.23R
6HR MIN TEMP:  69; 6HR MAX TEMP:  76;

RENSSELAER +   CLOUDY    66  36  32 NE9       30.24R
VALPARAISO     PTSUNNY   62  34  35 NE8       30.26F
6HR MIN TEMP:  61; 6HR MAX TEMP:  71;


$$

LMZ046-743>745-230100-
SOUTHERN LAKE MICHIGAN

STATION/POSITION TIME  TEMP    WIND        PRES    WAVE
                       AIR SEA DIR/SP/G            HT
                 (UTC) (F)     (DEG/KT/KT) (MB)    (FT)
BURNS HARBOR     0000   53      70/ 13/ 14 1025.4S
MICHIGAN CITY    0000   52      30/  8/  9   N/A
5NW MICH CITY    0000   51 51   80/  6/  8   N/A     2

$$

INZ004-005-014>016-021>024-230100-
NORTH CENTRAL INDIANA

CITY           SKY/WX    TMP DP  RH WIND       PRES   REMARKS
ELKHART        MOSUNNY   63  28  27 NW5       30.29R
GOSHEN         PTCLDY    63  35  35 NW13      30.27R
6HR MIN TEMP:  63; 6HR MAX TEMP:  70;

LOGANSPORT +   MOCLDY    68  25  19 N12       30.24R
ROCHESTER +    MOCLDY    68  32  26 N8        30.26R
SOUTH BEND     PTSUNNY   62  35  36 N7        30.29R
6HR MIN TEMP:  62; 6HR MAX TEMP:  71;

WARSAW +       MOCLDY    63  36  36 N7        30.26R

$$

INZ006>009-017-018-025>027-230100-
NORTHEAST INDIANA

CITY           SKY/WX    TMP DP  RH WIND       PRES   REMARKS
ANGOLA *+      CLEAR     66  43  42 N6        30.22F
AUBURN +       MOCLDY    64  37  36 W3        30.25R
FORT WAYNE     MOCLDY    67  40  37 NW3       30.25R
6HR MIN TEMP:  66; 6HR MAX TEMP:  72;

HUNTINGTON +   MOCLDY    65  36  33 NE3       30.24R
6HR MIN TEMP:  65; 6HR MAX TEMP:  72;


$$

INZ028-029-035-036-043>045-051>053-230100-
WEST CENTRAL INDIANA

CITY           SKY/WX    TMP DP  RH WIND       PRES   REMARKS
CRAWFORDSVL +  PTSUNNY   70  31  23 NW6       30.21S
6HR MIN TEMP:  69; 6HR MAX TEMP:  73;

GREENCASTLE +  CLOUDY    68  45  42 CALM      30.23S
LAFAYETTE      PTSUNNY   69  37  30 N12       30.22R
6HR MIN TEMP:  69; 6HR MAX TEMP:  75;

TERRE HAUTE    PTSUNNY   70  50  49 S6        30.21S
6HR MIN TEMP:  70; 6HR MAX TEMP:  75;


$$

INZ030>032-037>040-046>048-054>057-064-065-230100-
CENTRAL INDIANA

CITY           SKY/WX    TMP DP  RH WIND       PRES   REMARKS
CP ATTERBURY + CLOUDY    70  46  43 W3        30.23S
COLUMBUS       CLEAR     68  43  40 W7        30.23
FRANKFORT +    CLOUDY    72  40  31 NW3       30.25R
6HR MIN TEMP:  72; 6HR MAX TEMP:  75;

GREENWOOD *+   CLOUDY    72  41  33 SW7       30.23S
INDIANAPOLIS   CLOUDY    72  41  32 NW6       30.21S
6HR MIN TEMP:  71; 6HR MAX TEMP:  76;

-EAGLE CREEK   CLOUDY    73  44  35 N6        30.22R
6HR MIN TEMP:  71; 6HR MAX TEMP:  75;

KOKOMO *+      MOCLDY    70  37  30 N8        30.23R
6HR MIN TEMP:  70; 6HR MAX TEMP:  75;

MARION +       MOCLDY    69  34  27 N6        30.24R
MT COMFORT *+  MOCLDY    72  27  18 N8        30.23S
SHELBYVILLE    CLOUDY    73  46  38 W7        30.21S
6HR MIN TEMP:  73; 6HR MAX TEMP:  78;

ZIONSVILLE +   CLOUDY    71  41  33 N5        30.24R
6HR MIN TEMP:  71; 6HR MAX TEMP:  75;


$$

INZ033-034-041-042-049-050-058-059-230100-
EAST CENTRAL INDIANA

CITY           SKY/WX    TMP DP  RH WIND       PRES   REMARKS
MUNCIE         MOCLDY    70  42  36 N7        30.23R
6HR MIN TEMP:  70; 6HR MAX TEMP:  75;


$$

INZ060-061-067>069-081>083-085>088-230100-
SOUTHWEST INDIANA

CITY           SKY/WX    TMP DP  RH WIND       PRES   REMARKS
EVANSVILLE     CLOUDY    71  53  52 S6        30.23F
6HR MIN TEMP:  70; 6HR MAX TEMP:  75;

HUNTINGBURG *+ CLOUDY    70  52  52 SW5       30.24S
6HR MIN TEMP:  70; 6HR MAX TEMP:  73;

WASHINGTON +   CLOUDY    71  47  43 CALM      30.22S
6HR MIN TEMP:  71; 6HR MAX TEMP:  76;


$$

INZ062-063-066-070>080-084-089>092-230100-
SOUTH CENTRAL AND SOUTHEAST INDIANA

CITY           SKY/WX    TMP DP  RH WIND       PRES   REMARKS
BLOOMINGTON    MOCLDY    70  50  49 SW3       30.23S
6HR MIN TEMP:  70; 6HR MAX TEMP:  74;

MADISON *+     CLOUDY    70  41  35 W3        30.25S
NORTH VERNON + CLOUDY    70  48  46 W3        30.24R
SEYMOUR +      CLOUDY    72  46  40 CALM      30.23S

$$




USA.gov is the U.S. government's official web portal to all federal, state and local government web resources and services.